EW5833 Weather Reports


Display with metric or nautical units.
time (UTC)temp
F
wind
direction
speed
MPH
gust
MPH
rain 1hr
in
rain 24hr
in
rain mn
in
humidity
%
barometer
mb
20260906003301 65 63 0.0 2.0 0.00 0.00 0.00 80 1016.2
20260906003201 65 0 0.0 2.0 0.00 0.00 0.00 79 1016.2
20260906002640 65 310 1.0 3.0 0.00 0.00 0.00 78 1016.2
20260906002425 65 0 1.0 3.0 0.00 0.00 0.00 78 1016.2
20260906001644 66 0 0.0 2.0 0.00 0.00 0.00 76 1016.1
20260906001425 66 283 0.0 2.0 0.00 0.00 0.00 76 1016.1
20260906000739 67 0 1.0 4.0 0.00 0.00 0.00 74 1016.1
20260906000201 67 0 1.0 4.0 0.00 0.00 0.00 74 1016.1
20260905235648 68 56 2.0 8.0 0.00 0.00 0.00 71 1016.0
20260905235425 68 0 1.0 8.0 0.00 0.00 0.00 72 1016.0
20260905234302 68 319 2.0 6.0 0.00 0.00 0.00 70 1016.0
20260905234201 68 351 2.0 6.0 0.00 0.00 0.00 70 1016.0
20260905233638 69 327 1.0 4.0 0.00 0.00 0.00 70 1016.0
20260905233430 69 89 1.0 5.0 0.00 0.00 0.00 71 1016.0
20260905232733 70 72 2.0 7.0 0.00 0.00 0.00 68 1016.0
20260905232202 70 339 2.0 7.0 0.00 0.00 0.00 68 1016.0
20260905231302 71 212 2.0 6.0 0.00 0.00 0.00 67 1016.0
20260905231202 71 59 2.0 6.0 0.00 0.00 0.00 67 1016.0
20260905230301 71 0 2.0 9.0 0.00 0.00 0.00 66 1015.9
20260905230201 71 43 2.0 9.0 0.00 0.00 0.00 66 1015.9
20260905225300 72 326 3.0 9.0 0.00 0.00 0.00 67 1015.8
20260905225201 72 38 3.0 9.0 0.00 0.00 0.00 67 1015.7
20260905224301 72 0 2.0 8.0 0.00 0.00 0.00 68 1015.7
20260905224201 72 328 2.0 8.0 0.00 0.00 0.00 69 1015.7
20260905223302 73 82 3.0 9.0 0.00 0.00 0.00 67 1015.6
20260905223203 73 185 3.0 9.0 0.00 0.00 0.00 67 1015.6
20260905223121 73 287 2.0 7.0 0.00 0.00 0.00 66 1015.5
20260905222430 73 346 2.0 7.0 0.00 0.00 0.00 66 1015.5
20260905221644 74 7 2.0 9.0 0.00 0.00 0.00 64 1015.4
20260905221429 74 56 2.0 9.0 0.00 0.00 0.00 64 1015.4
20260905220300 74 48 1.0 6.0 0.00 0.00 0.00 65 1015.4
20260905220201 74 64 1.0 7.0 0.00 0.00 0.00 64 1015.4
20260905215305 74 69 1.0 7.0 0.00 0.00 0.00 63 1015.3
20260905215200 74 326 1.0 7.0 0.00 0.00 0.00 63 1015.3
20260905214259 74 65 2.0 8.0 0.00 0.00 0.00 61 1015.3
20260905214206 74 117 2.0 8.0 0.00 0.00 0.00 61 1015.3
20260905213648 74 43 2.0 5.0 0.00 0.00 0.00 61 1015.3
20260905213425 74 117 2.0 7.0 0.00 0.00 0.00 62 1015.4
20260905212256 75 330 3.0 9.0 0.00 0.00 0.00 60 1015.4
20260905212201 75 50 3.0 9.0 0.00 0.00 0.00 60 1015.4
20260905211255 75 50 2.0 6.0 0.00 0.00 0.00 61 1015.3
20260905211201 75 304 2.0 6.0 0.00 0.00 0.00 61 1015.4
20260905210253 76 131 2.0 6.0 0.00 0.00 0.00 59 1015.4
20260905210201 76 248 2.0 6.0 0.00 0.00 0.00 60 1015.4
20260905205252 77 37 2.0 7.0 0.00 0.00 0.00 60 1015.3
20260905205202 77 0 2.0 7.0 0.00 0.00 0.00 59 1015.3
20260905204641 76 300 3.0 6.0 0.00 0.00 0.00 58 1015.2
20260905204422 76 336 3.0 6.0 0.00 0.00 0.00 59 1015.2
20260905204119 77 233 2.0 7.0 0.00 0.00 0.00 56 1015.3
20260905203422 77 294 3.0 7.0 0.00 0.00 0.00 56 1015.2
20260905202251 77 147 3.0 10.0 0.00 0.00 0.00 57 1015.4
20260905202202 77 66 3.0 10.0 0.00 0.00 0.00 57 1015.4
20260905201251 77 109 2.0 7.0 0.00 0.00 0.00 55 1015.4
20260905201203 77 40 2.0 7.0 0.00 0.00 0.00 56 1015.4
20260905200247 77 49 3.0 7.0 0.00 0.00 0.00 56 1015.4
20260905200201 77 325 2.0 7.0 0.00 0.00 0.00 59 1015.4
20260905195638 77 83 2.0 6.0 0.00 0.00 0.00 56 1015.4
20260905195422 77 125 2.0 6.0 0.00 0.00 0.00 58 1015.4
20260905195124 77 136 2.0 6.0 0.00 0.00 0.00 54 1015.4
20260905194422 77 58 2.0 6.0 0.00 0.00 0.00 57 1015.4
20260905193245 77 331 2.0 6.0 0.00 0.00 0.00 56 1015.5
20260905193201 77 315 2.0 6.0 0.00 0.00 0.00 55 1015.5
20260905192245 78 79 2.0 6.0 0.00 0.00 0.00 56 1015.6
20260905192207 78 123 2.0 7.0 0.00 0.00 0.00 55 1015.5
20260905192201 78 0 2.0 7.0 0.00 0.00 0.00 56 1015.6
20260905191202 78 135 2.0 7.0 0.00 0.00 0.00 57 1015.6
20260905190241 78 37 2.0 8.0 0.00 0.00 0.00 59 1015.6
20260905190208 77 335 2.0 8.0 0.00 0.00 0.00 57 1015.6
20260905190201 78 329 3.0 8.0 0.00 0.00 0.00 57 1015.6
20260905185202 77 345 2.0 8.0 0.00 0.00 0.00 55 1015.6
20260905184238 77 240 2.0 6.0 0.00 0.00 0.00 56 1015.7
20260905184200 77 83 2.0 6.0 0.00 0.00 0.00 55 1015.7
20260905183234 77 161 2.0 6.0 0.00 0.00 0.00 57 1015.7
20260905183200 77 10 2.0 6.0 0.00 0.00 0.00 59 1015.7
20260905182234 78 335 2.0 5.0 0.00 0.00 0.00 59 1015.8
20260905182202 78 119 2.0 6.0 0.00 0.00 0.00 59 1015.7
20260905181232 77 22 2.0 6.0 0.00 0.00 0.00 63 1015.7
20260905181201 77 11 2.0 6.0 0.00 0.00 0.00 62 1015.7
20260905180642 76 82 2.0 6.0 0.00 0.00 0.00 65 1015.6
20260905180418 76 30 2.0 6.0 0.00 0.00 0.00 62 1015.7
20260905175233 76 317 3.0 8.0 0.00 0.00 0.00 63 1015.6
20260905175200 76 312 3.0 8.0 0.00 0.00 0.00 63 1015.6
20260905174232 76 302 2.0 7.0 0.00 0.00 0.00 65 1015.6
20260905174204 76 3 2.0 7.0 0.00 0.00 0.00 64 1015.7
20260905173232 76 325 2.0 7.0 0.00 0.00 0.00 65 1015.6
20260905173202 76 338 2.0 7.0 0.00 0.00 0.00 65 1015.7
20260905172234 76 302 2.0 7.0 0.00 0.00 0.00 65 1015.6
20260905172203 76 0 2.0 7.0 0.00 0.00 0.00 65 1015.6
20260905171646 77 79 1.0 6.0 0.00 0.00 0.00 67 1015.8
20260905171419 77 65 1.0 6.0 0.00 0.00 0.00 66 1015.8
20260905170719 76 78 2.0 9.0 0.00 0.00 0.00 64 1015.8
20260905170202 76 88 2.0 9.0 0.00 0.00 0.00 65 1015.8
20260905165230 76 295 2.0 7.0 0.00 0.00 0.00 65 1015.9
20260905165202 76 62 2.0 7.0 0.00 0.00 0.00 66 1015.9
20260905164230 76 161 2.0 6.0 0.00 0.00 0.00 65 1015.8
20260905164202 76 106 2.0 6.0 0.00 0.00 0.00 65 1015.8
20260905163230 76 41 2.0 8.0 0.00 0.00 0.00 67 1015.8
20260905163201 76 91 2.0 8.0 0.00 0.00 0.00 66 1015.8
20260905163116 75 46 2.0 6.0 0.00 0.00 0.00 65 1016.0
20260905162420 75 84 2.0 6.0 0.00 0.00 0.00 69 1016.0
20260905161229 75 77 3.0 7.0 0.00 0.00 0.00 66 1015.9
20260905161201 75 86 3.0 7.0 0.00 0.00 0.00 68 1015.9
20260905160228 75 71 2.0 6.0 0.00 0.00 0.00 68 1015.9
20260905160200 75 312 2.0 6.0 0.00 0.00 0.00 66 1015.9
20260905155632 74 82 3.0 7.0 0.00 0.00 0.00 68 1015.6
20260905155412 75 108 2.0 8.0 0.00 0.00 0.00 67 1015.8
20260905155404 75 144 2.0 8.0 0.00 0.00 0.00 68 1015.8
20260905154200 74 357 3.0 6.0 0.00 0.00 0.00 68 1015.7
20260905153230 74 79 2.0 6.0 0.00 0.00 0.00 67 1015.6
20260905153201 74 317 2.0 6.0 0.00 0.00 0.00 68 1015.6
20260905152230 74 72 2.0 7.0 0.00 0.00 0.00 68 1015.5
20260905152202 74 75 2.0 7.0 0.00 0.00 0.00 68 1015.6
20260905151643 74 77 2.0 8.0 0.00 0.00 0.00 68 1015.6
20260905151418 74 35 2.0 8.0 0.00 0.00 0.00 67 1015.6
20260905150717 73 0 2.0 10.0 0.00 0.00 0.00 68 1015.5
20260905150200 73 0 2.0 10.0 0.00 0.00 0.00 66 1015.6
20260905145714 73 138 2.0 10.0 0.00 0.00 0.00 65 1015.3
20260905145202 73 136 2.0 6.0 0.00 0.00 0.00 69 1015.4
20260905144229 73 295 3.0 9.0 0.00 0.00 0.00 70 1015.3
20260905144202 73 339 3.0 9.0 0.00 0.00 0.00 67 1015.4
20260905143714 72 192 2.0 6.0 0.00 0.00 0.00 70 1015.3
20260905143202 72 119 2.0 6.0 0.00 0.00 0.00 69 1015.3
20260905142229 71 67 2.0 5.0 0.00 0.01 0.00 73 1015.4
20260905142200 71 204 2.0 5.0 0.00 0.01 0.00 74 1015.3
20260905142119 70 0 2.0 5.0 0.00 0.02 0.00 78 1015.5
20260905141419 70 0 2.0 5.0 0.00 0.02 0.00 80 1015.5
20260905140711 70 44 2.0 6.0 0.00 0.04 0.00 79 1015.5
20260905140202 70 48 2.0 6.0 0.00 0.04 0.00 81 1015.5
20260905135228 68 332 2.0 6.0 0.00 0.04 0.00 83 1015.5
20260905135201 68 331 2.0 6.0 0.00 0.04 0.00 83 1015.5
20260905134232 67 87 2.0 4.0 0.00 0.04 0.00 85 1015.4
20260905134200 67 75 2.0 4.0 0.00 0.04 0.00 86 1015.4
20260905133231 67 38 1.0 3.0 0.00 0.04 0.00 87 1015.5
20260905133202 67 0 1.0 3.0 0.00 0.04 0.00 87 1015.5
20260905132230 67 135 2.0 5.0 0.00 0.04 0.00 87 1015.5
20260905132202 67 0 2.0 5.0 0.00 0.04 0.00 87 1015.5
20260905131710 67 80 1.0 3.0 0.00 0.04 0.00 87 1015.6
20260905131159 67 79 0.0 3.0 0.00 0.04 0.00 88 1015.6
20260905130229 67 0 1.0 4.0 0.00 0.05 0.00 88 1015.5
20260905130158 67 0 1.0 4.0 0.00 0.05 0.00 88 1015.5
20260905125230 67 62 1.0 3.0 0.00 0.08 0.00 89 1015.4
20260905125143 67 0 1.0 3.0 0.00 0.08 0.00 89 1015.4
20260905124229 67 332 0.0 2.0 0.00 0.09 0.00 88 1015.4
20260905124143 67 0 0.0 2.0 0.00 0.09 0.00 89 1015.3
20260905123229 66 0 0.0 2.0 0.00 0.09 0.00 90 1015.3
20260905123144 66 0 0.0 2.0 0.00 0.09 0.00 90 1015.3
20260905122707 66 348 0.0 2.0 0.00 0.09 0.00 92 1015.2
20260905122145 66 0 0.0 2.0 0.00 0.09 0.00 92 1015.2
20260905121711 65 95 0.0 3.0 0.00 0.09 0.00 92 1015.1
20260905121131 65 0 0.0 3.0 0.00 0.09 0.00 93 1015.1
20260905120230 65 0 0.0 3.0 0.00 0.09 0.00 94 1015.2
20260905120130 65 0 0.0 3.0 0.00 0.09 0.00 94 1015.1
20260905115230 65 68 0.0 2.0 0.00 0.09 0.00 96 1015.1
20260905115129 65 235 0.0 2.0 0.00 0.09 0.00 96 1015.1
20260905114230 65 76 1.0 4.0 0.00 0.09 0.00 97 1015.2
20260905114205 65 0 0.0 2.0 0.00 0.09 0.00 97 1015.1
20260905114130 65 0 1.0 4.0 0.00 0.09 0.00 97 1015.2
20260905113129 65 72 0.0 2.0 0.00 0.09 0.00 97 1015.1
20260905112229 65 0 0.0 3.0 0.00 0.09 0.00 97 1015.1
20260905112130 65 60 0.0 3.0 0.00 0.09 0.00 98 1015.0
20260905111230 65 73 1.0 4.0 0.00 0.09 0.00 98 1015.0
20260905111129 65 73 1.0 4.0 0.00 0.09 0.00 98 1015.0
20260905110230 65 0 0.0 0.0 0.00 0.09 0.00 98 1014.9
20260905110129 65 0 0.0 0.0 0.00 0.09 0.00 98 1014.9
20260905105234 65 0 1.0 2.0 0.00 0.09 0.00 98 1014.9
20260905105130 65 0 1.0 2.0 0.00 0.09 0.00 98 1014.9
20260905104712 64 0 0.0 0.0 0.00 0.09 0.00 98 1015.0
20260905104129 64 0 0.0 0.0 0.00 0.09 0.00 98 1015.0
20260905104056 64 0 0.0 3.0 0.00 0.09 0.00 98 1014.9
20260905103352 64 0 0.0 3.0 0.00 0.09 0.00 98 1014.9
20260905102230 64 0 0.0 2.0 0.00 0.09 0.00 98 1014.8
20260905102134 65 0 0.0 2.0 0.00 0.09 0.00 98 1014.8
20260905101526 65 0 0.0 1.0 0.00 0.09 0.00 98 1014.8
20260905101319 65 71 0.0 2.0 0.00 0.09 0.00 98 1014.7
20260905101309 65 79 0.0 2.0 0.00 0.09 0.00 98 1014.7
20260905100346 65 0 0.0 1.0 0.00 0.09 0.00 98 1014.7
20260905095230 65 0 0.0 1.0 0.00 0.09 0.00 98 1014.8
20260905095130 65 0 0.0 1.0 0.00 0.09 0.00 98 1014.7
20260905094230 65 0 0.0 2.0 0.00 0.09 0.00 98 1014.9
20260905094130 65 0 0.0 2.0 0.00 0.09 0.00 98 1014.9
20260905093713 65 0 0.0 0.0 0.00 0.09 0.00 98 1015.1
20260905093129 65 0 0.0 0.0 0.00 0.09 0.00 98 1015.1
20260905093055 65 0 0.0 2.0 0.00 0.09 0.00 98 1014.9
20260905092346 65 0 0.0 2.0 0.00 0.09 0.00 98 1014.9
20260905091231 65 0 0.0 0.0 0.00 0.09 0.00 98 1014.9
20260905091130 65 0 0.0 0.0 0.00 0.09 0.00 98 1014.8
20260905090218 65 0 0.0 0.0 0.00 0.09 0.00 98 1014.6
20260905090130 65 0 0.0 0.0 0.00 0.09 0.00 98 1014.6
20260905085218 65 0 0.0 2.0 0.00 0.09 0.00 98 1014.4
20260905085130 65 0 0.0 2.0 0.00 0.09 0.00 98 1014.4
20260905084558 65 168 1.0 3.0 0.00 0.09 0.00 98 1014.3
20260905084335 65 131 1.0 3.0 0.00 0.09 0.00 98 1014.4
20260905083645 65 0 0.0 3.0 0.00 0.09 0.00 98 1014.1
20260905083118 65 0 0.0 3.0 0.00 0.09 0.00 98 1014.0
20260905082202 65 0 1.0 3.0 0.00 0.09 0.00 97 1014.2
20260905082103 65 49 1.0 3.0 0.00 0.09 0.00 97 1014.2
20260905081202 65 63 0.0 3.0 0.00 0.09 0.00 97 1014.3
20260905081103 65 0 0.0 2.0 0.00 0.09 0.00 97 1014.3
20260905080202 65 0 0.0 2.0 0.00 0.09 0.00 97 1014.5
20260905080104 65 0 0.0 2.0 0.00 0.09 0.00 97 1014.6
20260905075203 65 0 0.0 0.0 0.00 0.09 0.00 97 1014.5
20260905075104 65 0 0.0 0.0 0.00 0.09 0.00 97 1014.5
20260905074203 65 0 0.0 2.0 0.00 0.09 0.00 97 1014.5
20260905074103 65 0 0.0 2.0 0.00 0.09 0.00 97 1014.5
20260905073203 65 80 0.0 2.0 0.00 0.09 0.00 97 1014.4
20260905073103 65 67 0.0 2.0 0.00 0.09 0.00 97 1014.4
20260905072202 65 0 0.0 2.0 0.00 0.09 0.00 97 1014.3
20260905072101 65 0 0.0 2.0 0.00 0.09 0.00 97 1014.4
20260905071202 65 164 0.0 1.0 0.00 0.09 0.00 97 1014.4
20260905071107 65 0 0.0 1.0 0.00 0.09 0.00 97 1014.4
20260905070642 65 0 0.0 2.0 0.00 0.09 0.00 97 1014.3
20260905065800 65 0 0.0 3.0 0.00 0.09 0.00 97 1014.0
20260905065602 65 0 0.0 3.0 0.00 0.09 0.00 97 1013.9
20260905064202 65 72 1.0 3.0 0.00 0.09 0.00 97 1013.9
20260905064102 65 0 1.0 3.0 0.00 0.09 0.00 97 1013.9
20260905063204 65 0 0.0 5.0 0.00 0.09 0.00 97 1014.1
20260905063104 65 0 1.0 5.0 0.00 0.09 0.00 97 1014.1
20260905062203 65 64 0.0 3.0 0.00 0.09 0.00 97 1014.2
20260905062102 65 332 0.0 3.0 0.00 0.09 0.00 97 1014.2
20260905061202 65 26 0.0 2.0 0.00 0.09 0.00 97 1014.4
20260905061102 65 51 0.0 2.0 0.00 0.09 0.00 97 1014.4
20260905060251 65 0 0.0 0.0 0.00 0.09 0.00 97 1014.8
20260905060201 65 0 0.0 1.0 0.00 0.09 0.00 97 1014.5
20260905055605 65 0 0.0 0.0 0.00 0.09 0.00 98 1014.8
20260905054645 65 0 0.0 0.0 0.00 0.09 0.00 98 1014.9
20260905054102 65 0 0.0 0.0 0.00 0.09 0.00 98 1014.9
20260905053152 65 0 0.0 2.0 0.00 0.09 0.00 98 1014.8
20260905053102 65 0 0.0 2.0 0.00 0.09 0.00 98 1014.8
20260905052152 65 0 0.0 0.0 0.00 0.09 0.00 98 1014.6
20260905052100 65 0 0.0 2.0 0.00 0.09 0.00 98 1014.6
20260905051152 65 0 0.0 2.0 0.00 0.09 0.00 98 1014.6
20260905051103 65 0 0.0 2.0 0.00 0.09 0.00 98 1014.6
20260905050149 65 0 0.0 0.0 0.00 0.09 0.00 98 1014.7
20260905050104 65 0 0.0 0.0 0.00 0.09 0.00 98 1014.7
20260905045150 65 0 0.0 0.0 0.00 0.09 0.00 98 1014.7
20260905045102 65 0 0.0 1.0 0.00 0.09 0.00 98 1014.7
20260905044150 65 0 0.0 1.0 0.00 0.09 0.00 98 1014.6
20260905044103 66 0 0.0 0.0 0.00 0.09 0.00 98 1014.6
20260905043811 66 0 0.0 0.0 0.00 0.09 0.00 97 1014.7
20260905043632 66 0 0.0 0.0 0.00 0.09 0.00 97 1014.7
20260905042150 66 0 0.0 3.0 0.00 0.09 0.00 97 1014.6
20260905042103 66 0 0.0 3.0 0.00 0.09 0.00 97 1014.6
20260905041636 66 80 0.0 2.0 0.00 0.09 0.00 97 1014.6
20260905041103 66 0 0.0 2.0 0.00 0.09 0.00 97 1014.6
20260905040548 67 0 0.0 2.0 0.00 0.09 0.00 97 1014.8
20260905040323 67 0 0.0 2.0 0.00 0.09 0.00 97 1014.8
20260905035148 67 0 0.0 2.0 0.00 0.09 0.09 96 1014.9
20260905035102 67 0 0.0 2.0 0.00 0.09 0.09 96 1014.9
20260905034622 67 0 0.0 0.0 0.00 0.09 0.09 95 1015.1
20260905034102 67 0 0.0 0.0 0.00 0.09 0.09 95 1015.1
20260905033145 67 0 0.0 1.0 0.00 0.09 0.09 96 1015.1
20260905033104 68 0 0.0 1.0 0.00 0.09 0.09 95 1015.1
20260905032145 68 0 0.0 2.0 0.00 0.09 0.09 95 1015.2
20260905032102 68 0 0.0 2.0 0.00 0.09 0.09 95 1015.2
20260905031613 68 0 0.0 2.0 0.00 0.09 0.09 95 1015.4
20260905031100 68 0 0.0 2.0 0.00 0.09 0.09 95 1015.5
20260905030143 68 0 0.0 4.0 0.00 0.09 0.09 95 1015.5
20260905030101 68 0 1.0 4.0 0.00 0.09 0.09 95 1015.5
20260905025142 68 96 1.0 4.0 0.00 0.09 0.09 96 1015.3
20260905025101 68 0 1.0 4.0 0.00 0.09 0.09 96 1015.3
20260905024142 69 0 0.0 4.0 0.00 0.09 0.09 96 1015.3
20260905024101 69 0 0.0 4.0 0.00 0.09 0.09 96 1015.3
20260905024050 69 0 0.0 3.0 0.00 0.09 0.09 96 1015.2
20260905023102 69 0 0.0 3.0 0.00 0.09 0.09 96 1015.2
20260905022624 69 56 0.0 3.0 0.00 0.09 0.09 96 1015.3
20260905022101 69 0 0.0 3.0 0.00 0.09 0.09 96 1015.3
20260905021145 69 140 0.0 3.0 0.00 0.09 0.09 96 1015.3
20260905021101 69 80 0.0 3.0 0.00 0.09 0.09 96 1015.3
20260905020535 69 0 0.0 2.0 0.00 0.09 0.09 96 1015.5
20260905020326 69 0 0.0 2.0 0.00 0.09 0.09 96 1015.5
20260905015139 69 0 0.0 0.0 0.00 0.09 0.09 96 1015.5
20260905015100 69 0 0.0 0.0 0.00 0.09 0.09 96 1015.5
20260905014140 69 0 0.0 2.0 0.00 0.09 0.09 96 1015.5
20260905014102 69 0 0.0 2.0 0.00 0.09 0.09 96 1015.5
20260905013140 69 0 0.0 2.0 0.00 0.09 0.09 95 1015.3
20260905013101 69 0 0.0 3.0 0.00 0.09 0.09 95 1015.3
20260905012138 70 82 0.0 3.0 0.00 0.09 0.09 95 1015.2
20260905012101 70 0 0.0 2.0 0.00 0.09 0.09 95 1015.2
20260905011137 70 0 1.0 3.0 0.00 0.09 0.09 95 1015.3
20260905011102 70 121 1.0 3.0 0.00 0.09 0.09 95 1015.3
20260905010624 70 0 1.0 7.0 0.00 0.09 0.09 95 1015.1
20260905010106 70 0 1.0 7.0 0.00 0.09 0.09 95 1015.1
20260905005133 70 57 1.0 7.0 0.00 0.09 0.09 95 1015.0
20260905005102 70 118 1.0 4.0 0.00 0.09 0.09 95 1015.0
20260905004102 71 0 1.0 6.0 0.00 0.09 0.09 95 1014.9